Time,TemperatureF,DewpointF,PressureIn,WindDirection,WindDirectionDegrees,WindSpeedMPH,WindSpeedGustMPH,Humidity,HourlyPrecipIn,Conditions,Clouds,dailyrainin,SolarRadiationWatts/m^2,SoftwareType,DateUTC
2013-06-19 00:01:00,75.0,15.0,-100.00,North,-999,-999.0,15.0,10,0.00,,,-99.99,0.000000,,2013-06-19 06:01:00,
2013-06-19 00:11:00,75.0,15.0,-100.00,North,-999,-999.0,15.0,10,0.00,,,-99.99,0.000000,,2013-06-19 06:11:00,
2013-06-19 00:21:00,75.0,17.0,-100.00,North,-999,-999.0,14.0,11,0.00,,,-99.99,0.000000,,2013-06-19 06:21:00,
2013-06-19 00:33:00,74.0,16.0,-100.00,North,-999,-999.0,15.0,11,0.00,,,-99.99,0.000000,,2013-06-19 06:33:00,
2013-06-19 00:42:00,74.0,16.0,-100.00,North,-999,-999.0,15.0,11,0.00,,,-99.99,0.000000,,2013-06-19 06:42:00,
2013-06-19 00:52:00,74.0,18.0,-100.00,North,-999,-999.0,16.0,12,0.00,,,-99.99,0.000000,,2013-06-19 06:52:00,
2013-06-19 01:01:00,74.0,18.0,-100.00,North,-999,-999.0,16.0,12,0.00,,,-99.99,0.000000,,2013-06-19 07:01:00,
2013-06-19 01:11:00,74.0,18.0,-100.00,North,-999,-999.0,14.0,12,0.00,,,-99.99,0.000000,,2013-06-19 07:11:00,
2013-06-19 01:22:00,73.0,15.0,-100.00,North,-999,-999.0,14.0,11,0.00,,,-99.99,0.000000,,2013-06-19 07:22:00,
2013-06-19 01:33:00,73.0,17.0,-100.00,North,-999,-999.0,12.0,12,0.00,,,-99.99,0.000000,,2013-06-19 07:33:00,
2013-06-19 01:43:00,74.0,16.0,-100.00,North,-999,-999.0,12.0,11,0.00,,,-99.99,0.000000,,2013-06-19 07:43:00,
2013-06-19 01:53:00,74.0,16.0,-100.00,North,-999,-999.0,12.0,11,0.00,,,-99.99,0.000000,,2013-06-19 07:53:00,
2013-06-19 02:01:00,74.0,16.0,-100.00,North,-999,-999.0,17.0,11,0.00,,,-99.99,0.000000,,2013-06-19 08:01:00,
2013-06-19 02:11:00,75.0,17.0,-100.00,North,-999,-999.0,18.0,11,0.00,,,-99.99,0.000000,,2013-06-19 08:11:00,
2013-06-19 02:22:00,74.0,14.0,-100.00,North,-999,-999.0,13.0,10,0.00,,,-99.99,0.000000,,2013-06-19 08:22:00,
2013-06-19 02:33:00,73.0,16.0,-100.00,North,-999,-999.0,16.0,11,0.00,,,-99.99,0.000000,,2013-06-19 08:33:00,
2013-06-19 02:43:00,72.0,15.0,-100.00,North,-999,-999.0,13.0,11,0.00,,,-99.99,0.000000,,2013-06-19 08:43:00,
2013-06-19 02:50:00,72.0,14.0,-100.00,North,-999,-999.0,13.0,11,0.00,,,-99.99,0.000000,,2013-06-19 08:50:00,
2013-06-19 02:53:00,72.0,14.0,-100.00,North,-999,-999.0,14.0,11,0.00,,,-99.99,0.000000,,2013-06-19 08:53:00,
2013-06-19 03:02:00,72.0,15.0,-100.00,North,-999,-999.0,13.0,11,0.00,,,-99.99,0.000000,,2013-06-19 09:02:00,
2013-06-19 03:11:00,72.0,15.0,-100.00,North,-999,-999.0,13.0,11,0.00,,,-99.99,0.000000,,2013-06-19 09:11:00,
2013-06-19 03:22:00,72.0,14.0,-100.00,North,-999,-999.0,13.0,11,0.00,,,-99.99,0.000000,,2013-06-19 09:22:00,
2013-06-19 03:34:00,72.0,14.0,-100.00,North,-999,-999.0,13.0,11,0.00,,,-99.99,0.000000,,2013-06-19 09:34:00,
2013-06-19 03:43:00,72.0,14.0,-100.00,North,-999,-999.0,13.0,11,0.00,,,-99.99,0.000000,,2013-06-19 09:43:00,
2013-06-19 04:22:00,68.0,16.0,-100.00,North,-999,-999.0,10.0,13,0.00,,,-99.99,0.000000,,2013-06-19 10:22:00,
2013-06-19 04:33:00,68.0,16.0,-100.00,North,-999,-999.0,11.0,13,0.00,,,-99.99,0.000000,,2013-06-19 10:33:00,
2013-06-19 04:43:00,69.0,16.0,-100.00,North,-999,-999.0,15.0,13,0.00,,,-99.99,0.000000,,2013-06-19 10:43:00,
2013-06-19 04:53:00,68.0,15.0,-100.00,North,-999,-999.0,11.0,13,0.00,,,-99.99,0.000000,,2013-06-19 10:53:00,
2013-06-19 05:02:00,69.0,16.0,-100.00,North,-999,-999.0,10.0,13,0.00,,,-99.99,0.000000,,2013-06-19 11:02:00,
2013-06-19 05:11:00,69.0,16.0,-100.00,North,-999,-999.0,10.0,13,0.00,,,-99.99,0.000000,,2013-06-19 11:11:00,
2013-06-19 05:22:00,70.0,15.0,-100.00,North,-999,-999.0,15.0,12,0.00,,,-99.99,0.000000,,2013-06-19 11:22:00,
2013-06-19 05:33:00,71.0,14.0,-100.00,North,-999,-999.0,14.0,11,0.00,,,-99.99,0.000000,,2013-06-19 11:33:00,
2013-06-19 05:42:00,71.0,16.0,-100.00,North,-999,-999.0,15.0,12,0.00,,,-99.99,0.000000,,2013-06-19 11:42:00,
2013-06-19 05:54:00,71.0,16.0,-100.00,North,-999,-999.0,15.0,12,0.00,,,-99.99,0.000000,,2013-06-19 11:54:00,
2013-06-19 06:01:00,69.0,16.0,-100.00,North,-999,-999.0,13.0,13,0.00,,,-99.99,0.000000,,2013-06-19 12:01:00,
2013-06-19 06:11:00,71.0,16.0,-100.00,North,-999,-999.0,15.0,12,0.00,,,-99.99,2.000000,,2013-06-19 12:11:00,
2013-06-19 06:22:00,68.0,17.0,-100.00,North,-999,-999.0,12.0,14,0.00,,,-99.99,6.000000,,2013-06-19 12:22:00,
2013-06-19 06:34:00,70.0,15.0,-100.00,North,-999,-999.0,14.0,12,0.00,,,-99.99,13.000000,,2013-06-19 12:34:00,
2013-06-19 06:44:00,71.0,16.0,-100.00,North,-999,-999.0,14.0,12,0.00,,,-99.99,22.000000,,2013-06-19 12:44:00,
2013-06-19 06:52:00,71.0,16.0,-100.00,North,-999,-999.0,14.0,12,0.00,,,-99.99,22.000000,,2013-06-19 12:52:00,
2013-06-19 07:11:00,72.0,16.0,-100.00,North,-999,-999.0,18.0,12,0.00,,,-99.99,45.000000,,2013-06-19 13:11:00,
2013-06-19 07:22:00,70.0,17.0,-100.00,North,-999,-999.0,16.0,13,0.00,,,-99.99,77.000000,,2013-06-19 13:22:00,
2013-06-19 07:33:00,71.0,16.0,-100.00,North,-999,-999.0,19.0,12,0.00,,,-99.99,139.000000,,2013-06-19 13:33:00,
2013-06-19 07:42:00,72.0,16.0,-100.00,North,-999,-999.0,16.0,12,0.00,,,-99.99,204.000000,,2013-06-19 13:42:00,
2013-06-19 07:53:00,72.0,16.0,-100.00,North,-999,-999.0,16.0,12,0.00,,,-99.99,204.000000,,2013-06-19 13:53:00,
2013-06-19 08:01:00,72.0,18.0,-100.00,North,-999,-999.0,18.0,13,0.00,,,-99.99,246.000000,,2013-06-19 14:01:00,
2013-06-19 08:11:00,72.0,17.0,-100.00,North,-999,-999.0,19.0,12,0.00,,,-99.99,282.000000,,2013-06-19 14:11:00,
2013-06-19 08:43:00,72.0,18.0,-100.00,North,-999,-999.0,18.0,13,0.00,,,-99.99,322.000000,,2013-06-19 14:43:00,
2013-06-19 09:33:00,77.0,20.0,-100.00,North,-999,-999.0,20.0,12,0.00,,,-99.99,591.000000,,2013-06-19 15:33:00,
2013-06-19 09:43:00,78.0,19.0,-100.00,North,-999,-999.0,23.0,11,0.00,,,-99.99,666.000000,,2013-06-19 15:43:00,
2013-06-19 09:53:00,78.0,21.0,-100.00,North,-999,-999.0,27.0,12,0.00,,,-99.99,706.000000,,2013-06-19 15:53:00,
2013-06-19 10:01:00,78.0,23.0,-100.00,North,-999,-999.0,26.0,13,0.00,,,-99.99,744.000000,,2013-06-19 16:01:00,
2013-06-19 10:11:00,78.0,23.0,-100.00,North,-999,-999.0,26.0,13,0.00,,,-99.99,744.000000,,2013-06-19 16:11:00,
2013-06-19 10:22:00,78.0,23.0,-100.00,North,-999,-999.0,27.0,13,0.00,,,-99.99,762.000000,,2013-06-19 16:22:00,
2013-06-19 10:33:00,78.0,23.0,-100.00,North,-999,-999.0,26.0,13,0.00,,,-99.99,815.000000,,2013-06-19 16:33:00,
2013-06-19 10:43:00,78.0,21.0,-100.00,North,-999,-999.0,29.0,12,0.00,,,-99.99,878.000000,,2013-06-19 16:43:00,
2013-06-19 10:52:00,78.0,21.0,-100.00,North,-999,-999.0,29.0,12,0.00,,,-99.99,878.000000,,2013-06-19 16:52:00,
2013-06-19 11:02:00,78.0,22.0,-100.00,North,-999,-999.0,27.0,12,0.00,,,-99.99,920.000000,,2013-06-19 17:02:00,
2013-06-19 11:11:00,79.0,18.0,-100.00,North,-999,-999.0,25.0,10,0.00,,,-99.99,949.000000,,2013-06-19 17:11:00,
2013-06-19 11:22:00,79.0,22.0,-100.00,North,-999,-999.0,26.0,12,0.00,,,-99.99,973.000000,,2013-06-19 17:22:00,
2013-06-19 11:33:00,80.0,23.0,-100.00,North,-999,-999.0,24.0,12,0.00,,,-99.99,1005.000000,,2013-06-19 17:33:00,
2013-06-19 11:43:00,79.0,20.0,-100.00,North,-999,-999.0,26.0,11,0.00,,,-99.99,1042.000000,,2013-06-19 17:43:00,
2013-06-19 11:53:00,79.0,22.0,-100.00,North,-999,-999.0,24.0,12,0.00,,,-99.99,1077.000000,,2013-06-19 17:53:00,
2013-06-19 12:01:00,79.0,22.0,-100.00,North,-999,-999.0,25.0,12,0.00,,,-99.99,1100.000000,,2013-06-19 18:01:00,
2013-06-19 12:11:00,79.0,22.0,-100.00,North,-999,-999.0,25.0,12,0.00,,,-99.99,1100.000000,,2013-06-19 18:11:00,
2013-06-19 12:23:00,80.0,25.0,-100.00,North,-999,-999.0,23.0,13,0.00,,,-99.99,1168.000000,,2013-06-19 18:23:00,
2013-06-19 12:33:00,80.0,25.0,-100.00,North,-999,-999.0,23.0,13,0.00,,,-99.99,1168.000000,,2013-06-19 18:33:00,
2013-06-19 12:43:00,79.0,24.0,-100.00,North,-999,-999.0,23.0,13,0.00,,,-99.99,606.000000,,2013-06-19 18:43:00,
2013-06-19 12:50:00,81.0,24.0,-100.00,North,-999,-999.0,21.0,12,0.00,,,-99.99,1265.000000,,2013-06-19 18:50:00,
2013-06-19 12:53:00,79.0,24.0,-100.00,North,-999,-999.0,23.0,13,0.00,,,-99.99,606.000000,,2013-06-19 18:53:00,
2013-06-19 13:01:00,81.0,26.0,-100.00,North,-999,-999.0,19.0,13,0.00,,,-99.99,1253.000000,,2013-06-19 19:01:00,
2013-06-19 13:11:00,81.0,24.0,-100.00,North,-999,-999.0,21.0,12,0.00,,,-99.99,1265.000000,,2013-06-19 19:11:00,
2013-06-19 13:22:00,81.0,24.0,-100.00,North,-999,-999.0,21.0,12,0.00,,,-99.99,1265.000000,,2013-06-19 19:22:00,
2013-06-19 13:32:00,81.0,24.0,-100.00,North,-999,-999.0,21.0,12,0.00,,,-99.99,1265.000000,,2013-06-19 19:32:00,
2013-06-19 13:43:00,81.0,24.0,-100.00,North,-999,-999.0,21.0,12,0.00,,,-99.99,1265.000000,,2013-06-19 19:43:00,
2013-06-19 14:22:00,82.0,24.0,-100.00,North,-999,-999.0,25.0,12,0.00,,,-99.99,1259.000000,,2013-06-19 20:22:00,
2013-06-19 14:33:00,82.0,22.0,-100.00,North,-999,-999.0,24.0,11,0.00,,,-99.99,1281.000000,,2013-06-19 20:33:00,
2013-06-19 14:42:00,80.0,25.0,-100.00,North,-999,-999.0,21.0,13,0.00,,,-99.99,1323.000000,,2013-06-19 20:42:00,
2013-06-19 14:52:00,80.0,25.0,-100.00,North,-999,-999.0,21.0,13,0.00,,,-99.99,1323.000000,,2013-06-19 20:52:00,
2013-06-19 15:02:00,83.0,21.0,-100.00,North,-999,-999.0,27.0,10,0.00,,,-99.99,1216.000000,,2013-06-19 21:02:00,
2013-06-19 15:11:00,83.0,21.0,-100.00,North,-999,-999.0,27.0,10,0.00,,,-99.99,1216.000000,,2013-06-19 21:11:00,
2013-06-19 15:22:00,82.0,20.0,-100.00,North,-999,-999.0,22.0,10,0.00,,,-99.99,1167.000000,,2013-06-19 21:22:00,
2013-06-19 15:33:00,82.0,20.0,-100.00,North,-999,-999.0,22.0,10,0.00,,,-99.99,1167.000000,,2013-06-19 21:33:00,
2013-06-19 15:44:00,81.0,22.0,-100.00,North,-999,-999.0,24.0,11,0.00,,,-99.99,1127.000000,,2013-06-19 21:44:00,
2013-06-19 15:52:00,82.0,22.0,-100.00,North,-999,-999.0,13.0,11,0.00,,,-99.99,1116.000000,,2013-06-19 21:52:00,
2013-06-19 16:22:00,83.0,13.0,-100.00,North,-999,-999.0,19.0,7,0.00,,,-99.99,1049.000000,,2013-06-19 22:22:00,
2013-06-19 17:02:00,83.0,9.0,-100.00,North,-999,-999.0,24.0,6,0.00,,,-99.99,919.000000,,2013-06-19 23:02:00,
2013-06-19 17:12:00,83.0,9.0,-100.00,North,-999,-999.0,24.0,6,0.00,,,-99.99,919.000000,,2013-06-19 23:12:00,
2013-06-19 17:43:00,83.0,5.0,-100.00,North,-999,-999.0,23.0,5,0.00,,,-99.99,789.000000,,2013-06-19 23:43:00,
2013-06-19 17:50:00,82.0,15.0,-100.00,North,-999,-999.0,16.0,8,0.00,,,-99.99,669.000000,,2013-06-19 23:50:00,
2013-06-19 17:52:00,83.0,5.0,-100.00,North,-999,-999.0,23.0,5,0.00,,,-99.99,789.000000,,2013-06-19 23:52:00,
2013-06-19 18:01:00,83.0,5.0,-100.00,North,-999,-999.0,23.0,5,0.00,,,-99.99,753.000000,,2013-06-20 00:01:00,
2013-06-19 18:11:00,83.0,9.0,-100.00,North,-999,-999.0,18.0,6,0.00,,,-99.99,715.000000,,2013-06-20 00:11:00,
2013-06-19 18:22:00,82.0,15.0,-100.00,North,-999,-999.0,16.0,8,0.00,,,-99.99,669.000000,,2013-06-20 00:22:00,
2013-06-19 18:33:00,82.0,15.0,-100.00,North,-999,-999.0,16.0,8,0.00,,,-99.99,669.000000,,2013-06-20 00:33:00,
2013-06-19 18:43:00,82.0,15.0,-100.00,North,-999,-999.0,16.0,8,0.00,,,-99.99,669.000000,,2013-06-20 00:43:00,
2013-06-19 19:22:00,73.0,21.0,-100.00,North,-999,-999.0,28.0,14,0.00,,,-99.99,370.000000,,2013-06-20 01:22:00,
2013-06-19 19:33:00,73.0,21.0,-100.00,North,-999,-999.0,25.0,14,0.00,,,-99.99,333.000000,,2013-06-20 01:33:00,
2013-06-19 19:44:00,72.0,25.0,-100.00,North,-999,-999.0,25.0,17,0.00,,,-99.99,286.000000,,2013-06-20 01:44:00,
2013-06-19 19:52:00,72.0,25.0,-100.00,North,-999,-999.0,25.0,17,0.00,,,-99.99,286.000000,,2013-06-20 01:52:00,
2013-06-19 20:02:00,71.0,25.0,-100.00,North,-999,-999.0,20.0,18,0.00,,,-99.99,247.000000,,2013-06-20 02:02:00,
2013-06-19 20:11:00,69.0,25.0,-100.00,North,-999,-999.0,21.0,19,0.00,,,-99.99,107.000000,,2013-06-20 02:11:00,
2013-06-19 20:23:00,68.0,26.0,-100.00,North,-999,-999.0,21.0,20,0.00,,,-99.99,54.000000,,2013-06-20 02:23:00,
2013-06-19 20:33:00,67.0,23.0,-100.00,North,-999,-999.0,24.0,19,0.00,,,-99.99,67.000000,,2013-06-20 02:33:00,
2013-06-19 20:43:00,66.0,23.0,-100.00,North,-999,-999.0,21.0,19,0.00,,,-99.99,36.000000,,2013-06-20 02:43:00,
2013-06-19 20:52:00,66.0,23.0,-100.00,North,-999,-999.0,21.0,19,0.00,,,-99.99,36.000000,,2013-06-20 02:52:00,
2013-06-19 21:02:00,66.0,25.0,-100.00,North,-999,-999.0,20.0,21,0.00,,,-99.99,28.000000,,2013-06-20 03:02:00,
2013-06-19 21:11:00,65.0,24.0,-100.00,North,-999,-999.0,18.0,21,0.00,,,-99.99,20.000000,,2013-06-20 03:11:00,
2013-06-19 21:22:00,63.0,24.0,-100.00,North,-999,-999.0,16.0,22,0.00,,,-99.99,5.000000,,2013-06-20 03:22:00,
2013-06-19 21:33:00,63.0,24.0,-100.00,North,-999,-999.0,10.0,22,0.00,,,-99.99,2.000000,,2013-06-20 03:33:00,
2013-06-19 21:43:00,63.0,24.0,-100.00,North,-999,-999.0,9.0,23,0.00,,,-99.99,0.000000,,2013-06-20 03:43:00,
2013-06-19 21:53:00,63.0,24.0,-100.00,North,-999,-999.0,11.0,22,0.00,,,-99.99,0.000000,,2013-06-20 03:53:00,
2013-06-19 22:01:00,63.0,24.0,-100.00,North,-999,-999.0,11.0,22,0.00,,,-99.99,0.000000,,2013-06-20 04:01:00,
2013-06-19 22:11:00,62.0,23.0,-100.00,North,-999,-999.0,9.0,22,0.00,,,-99.99,0.000000,,2013-06-20 04:11:00,
2013-06-19 22:22:00,60.0,28.0,-100.00,North,-999,-999.0,6.0,30,0.00,,,-99.99,0.000000,,2013-06-20 04:22:00,
2013-06-19 22:33:00,58.0,24.0,-100.00,North,-999,-999.0,7.0,27,0.00,,,-99.99,0.000000,,2013-06-20 04:33:00,
2013-06-19 22:43:00,57.0,27.0,-100.00,North,-999,-999.0,5.0,31,0.00,,,-99.99,0.000000,,2013-06-20 04:43:00,
2013-06-19 22:50:00,62.0,26.0,-100.00,North,-999,-999.0,18.0,25,0.00,,,-99.99,0.000000,,2013-06-20 04:50:00,
2013-06-19 23:12:00,61.0,23.0,-100.00,North,-999,-999.0,11.0,23,0.00,,,-99.99,0.000000,,2013-06-20 05:12:00,
2013-06-19 23:22:00,62.0,26.0,-100.00,North,-999,-999.0,18.0,25,0.00,,,-99.99,0.000000,,2013-06-20 05:22:00,
2013-06-19 23:33:00,62.0,26.0,-100.00,North,-999,-999.0,18.0,25,0.00,,,-99.99,0.000000,,2013-06-20 05:33:00,
2013-06-19 23:44:00,62.0,26.0,-100.00,North,-999,-999.0,18.0,25,0.00,,,-99.99,0.000000,,2013-06-20 05:44:00,